[[{"header":{"parameterUnit":"m.s-1","parameterCategory":1,"la1":30.2991,"la2":30.254,"lo1":-89.0895,"lo2":-89.0444,"dx":0.0017,"dy":0.0017,"nx":28,"ny":28,"refTime":"2022-11-17T15:00:00:Z","depth":0,"parameterNumber":2,"parameterNumberName":"U-component_of_WINDS"},"data":[0,0,0,0,0,0,0,0,0,0,0,0,0,0,0,0,0,0,0,0,0,0,0,0,0,0,0,0,0,0,0,0,0,0,0,0,0,0,0,0,0,0,0,0,0,0,0,0,0,0,0,0,0,0,0,0,0,0,0.4748,0.4748,0,0.4708,0.4707,0.4707,0.4698,0.4698,0.4699,0.4699,0.4655,0.4654,0.4652,0,0,0,0,0,0,0,0,0,0,0,0,0,0.4818,0.4816,0.4748,0.4748,0.4747,0.4708,0.4707,0.4707,0.4698,0.4698,0.4699,0.4699,0.4656,0.4654,0.4652,0,0,0,0,0,0,0,0,0,0,0,0,0,0.4783,0.4816,0.4749,0.4738,0.4737,0.4708,0.4707,0.4707,0.4698,0.4698,0.4699,0.4699,0.4656,0.4654,0.4652,0.463,0,0,0.4645,0.4644,0,0,0,0,0,0,0,0,0.4785,0.4781,0.474,0.4739,0.4738,0.4708,0.4716,0.4681,0.4698,0.4713,0.4699,0.4699,0.4672,0.4669,0.466,0.4627,0.4626,0.4645,0.4644,0.4643,0.4642,0,0,0,0,0,0,0,0.4788,0.4782,0.4732,0.474,0.4738,0.4736,0.4731,0.4709,0.469,0.4711,0.4711,0.4706,0.4672,0.4662,0.4659,0.4625,0.4645,0.4643,0.4642,0.4641,0.4572,0.4572,0,0,0,0,0,0,0.4792,0.4784,0.4734,0.4731,0.4763,0.4734,0.4729,0.4717,0.4691,0.4687,0.4706,0.4706,0.4666,0.4662,0.4658,0.463,0.4643,0.4641,0.464,0.4573,0.4572,0.4572,0,0,0,0,0,0,0.4793,0.4788,0.4735,0.4758,0.4751,0.4732,0.4719,0.4716,0.4707,0.4686,0.4683,0.47,0.4666,0.4661,0.4637,0.4628,0.464,0.4638,0.4573,0.4573,0.4572,0.4574,0,0,0,0,0,0,0.4796,0.4788,0.4779,0.4757,0.475,0.4715,0.4719,0.4715,0.4703,0.4703,0.468,0.4676,0.4666,0.464,0.4635,0.4625,0.4636,0.4574,0.4573,0.4572,0.4574,0.4573,0.4572,0,0,0,0,0,0.4798,0.4781,0.4779,0.4773,0.4738,0.4715,0.471,0.4699,0.4703,0.4694,0.4681,0.4677,0.463,0.4638,0.4632,0.4621,0.4575,0.4573,0.4572,0.4575,0.4573,0.4572,0,0,0,0,0,0,0.4801,0.4778,0.4775,0.4751,0.4735,0.4713,0.4702,0.4698,0.468,0.4681,0.4667,0.4662,0.4639,0.4628,0.4637,0.4599,0.4603,0.46,0.4606,0.4605,0.4604,0.4606,0.4635,0,0,0,0,0,0.48,0.4783,0.4763,0.4743,0.4735,0.472,0.4709,0.4703,0.4685,0.4678,0.4664,0.4647,0.4628,0.4616,0.4598,0.4573,0.4568,0.4563,0.4562,0.4561,0.4559,0.4545,0.4543,0.4568,0.4568,0.4568,0,0,0.4795,0.478,0.477,0.4744,0.473,0.4713,0.4714,0.4696,0.4683,0.4675,0.4652,0.4641,0.4621,0.4597,0.4585,0.4587,0.4551,0.4559,0.4559,0.4557,0.4544,0.4541,0.4539,0.4567,0.4567,0.4567,0,0,0.4778,0.4765,0.4747,0.4734,0.4715,0.4705,0.4701,0.468,0.4673,0.465,0.4644,0.4628,0.4596,0.4583,0.4571,0.4551,0.4547,0.4545,0.4539,0.4526,0.4524,0.4522,0.4514,0.4512,0.4543,0.4543,0.4543,0,0.4774,0.4748,0.4738,0.472,0.4709,0.4703,0.4684,0.4672,0.4648,0.464,0.4642,0.4603,0.4589,0.4562,0.4557,0.4548,0.4543,0.4547,0.4525,0.4523,0.4521,0.4514,0.4511,0.4543,0.4543,0.4543,0.4543,0,0.4745,0.4727,0.4715,0.4692,0.468,0.4662,0.4649,0.4637,0.4632,0.4622,0.4599,0.4582,0.4561,0.4554,0.4548,0.4526,0.4528,0.4528,0.4531,0.4519,0.4511,0.4509,0.4543,0.4543,0.4543,0.4543,0,0,0.4727,0.47,0.4696,0.4686,0.4665,0.4651,0.4633,0.4613,0.4603,0.4587,0.4571,0.4545,0.4545,0.4533,0.4526,0.4514,0.4499,0.4516,0.4515,0.4513,0.4474,0.4473,0.447,0.4497,0.4496,0.4496,0.4475,0,0.4707,0.4675,0.4666,0.4639,0.4622,0.4617,0.4601,0.4587,0.4577,0.4562,0.4551,0.4533,0.4534,0.4527,0.4516,0.4503,0.4491,0.4505,0.4481,0.4481,0.4486,0.4466,0.4466,0.4447,0.4472,0.4472,0.4471,0,0.4678,0.4663,0.4634,0.4616,0.4609,0.4595,0.4576,0.4561,0.4545,0.4539,0.4526,0.452,0.4501,0.4507,0.448,0.449,0.448,0.4473,0.4472,0.4468,0.4475,0.4462,0.4441,0.4438,0.4467,0.4467,0.4468,0,0.4668,0.464,0.4619,0.4611,0.4589,0.4579,0.457,0.4554,0.4543,0.4526,0.4519,0.4501,0.449,0.4476,0.4465,0.4471,0.444,0.4445,0.4434,0.4434,0.4427,0.4427,0.4403,0.4422,0.4422,0.4422,0.4422,0,0.4646,0.4628,0.4614,0.4601,0.4582,0.4572,0.4553,0.4543,0.4529,0.4514,0.4509,0.4495,0.4482,0.4466,0.4458,0.4437,0.4433,0.4427,0.4425,0.4427,0.4428,0.442,0.4421,0.4421,0.4421,0.4421,0.4421,0,0.463,0.462,0.4597,0.4579,0.4574,0.4561,0.4545,0.4532,0.4523,0.4505,0.45,0.4485,0.4467,0.4455,0.4431,0.4426,0.4403,0.4402,0.4409,0.4408,0.4397,0.4398,0.4367,0.4362,0.4384,0.4384,0.4384,0,0.4616,0.4603,0.4584,0.4574,0.4565,0.4548,0.4537,0.4528,0.4516,0.4497,0.4487,0.4468,0.4453,0.4424,0.4411,0.4393,0.439,0.4381,0.4387,0.439,0.439,0.439,0.4389,0.4379,0.4379,0.4379,0.4379,0,0.4593,0.4589,0.4573,0.4556,0.4543,0.4529,0.4515,0.4507,0.4496,0.4483,0.4465,0.4453,0.4429,0.4411,0.4392,0.4382,0.4378,0.4377,0.4373,0.4375,0.4379,0.4377,0.4405,0.4377,0.4377,0.4377,0.4377,0.4378,0.4577,0.4565,0.455,0.4533,0.4522,0.451,0.4497,0.4487,0.4472,0.4452,0.4448,0.4428,0.4413,0.4387,0.4377,0.4361,0.4363,0.4358,0.4356,0.4355,0.4355,0.4383,0.4358,0.4358,0.4358,0.4358,0.4358,0,0.4553,0.4543,0.4528,0.4509,0.4496,0.4495,0.448,0.4469,0.4452,0.4438,0.4424,0.4403,0.4385,0.4372,0.4354,0.4344,0.4342,0.4339,0.4339,0.4337,0.4355,0.4359,0.4341,0.4341,0.4341,0.4341,0.4341,0.4341,0.4539,0.4518,0.4513,0.4487,0.4478,0.4459,0.4451,0.4439,0.4428,0.4405,0.4391,0.4383,0.4369,0.435,0.4334,0.4331,0.4324,0.4322,0.4318,0.4334,0.4336,0.4338,0.4342,0.4321,0.4321,0.4302,0.4302,0.4301]},{"header":{"parameterUnit":"m.s-1","parameterCategory":1,"la1":30.2991,"la2":30.254,"lo1":-89.0895,"lo2":-89.0444,"dx":0.0017,"dy":0.0017,"nx":28,"ny":28,"refTime":"2022-11-17T15:00:00:Z","depth":0,"parameterNumber":3,"parameterNumberName":"V-component_of_WINDS"},"data":[0,0,0,0,0,0,0,0,0,0,0,0,0,0,0,0,0,0,0,0,0,0,0,0,0,0,0,0,0,0,0,0,0,0,0,0,0,0,0,0,0,0,0,0,0,0,0,0,0,0,0,0,0,0,0,0,0,0,-4.8073,-4.8074,0,-4.8151,-4.8152,-4.8153,-4.8099,-4.8096,-4.8094,-4.8092,-4.8168,-4.8172,-4.8176,0,0,0,0,0,0,0,0,0,0,0,0,0,-4.7875,-4.7879,-4.8073,-4.8074,-4.8075,-4.8151,-4.8152,-4.8153,-4.8099,-4.8096,-4.8093,-4.8091,-4.8166,-4.8171,-4.8176,0,0,0,0,0,0,0,0,0,0,0,0,0,-4.7958,-4.788,-4.8073,-4.8058,-4.8057,-4.8151,-4.8152,-4.8153,-4.81,-4.8096,-4.8093,-4.8089,-4.8164,-4.8171,-4.8177,-4.8289,0,0,-4.8197,-4.8199,0,0,0,0,0,0,0,0,-4.7953,-4.7965,-4.8059,-4.8059,-4.8058,-4.8112,-4.811,-4.8199,-4.8101,-4.8084,-4.8092,-4.8088,-4.8152,-4.8159,-4.8181,-4.8293,-4.8296,-4.8197,-4.8201,-4.8204,-4.8206,0,0,0,0,0,0,0,-4.7948,-4.7961,-4.8104,-4.806,-4.806,-4.8046,-4.8054,-4.8126,-4.8137,-4.8085,-4.8081,-4.8091,-4.8151,-4.8175,-4.8183,-4.8297,-4.8197,-4.8203,-4.8207,-4.8209,-4.8505,-4.8509,0,0,0,0,0,0,-4.7944,-4.7957,-4.8101,-4.8106,-4.7996,-4.8052,-4.8061,-4.8098,-4.8136,-4.8138,-4.8094,-4.8088,-4.8166,-4.8175,-4.8185,-4.832,-4.8204,-4.821,-4.8213,-4.8501,-4.8506,-4.8511,0,0,0,0,0,0,-4.794,-4.7957,-4.8098,-4.8031,-4.8048,-4.806,-4.8102,-4.8102,-4.8126,-4.8143,-4.8144,-4.8118,-4.8164,-4.8176,-4.8264,-4.8322,-4.8213,-4.8218,-4.8497,-4.8503,-4.8508,-4.859,0,0,0,0,0,0,-4.7934,-4.7956,-4.7999,-4.8032,-4.8052,-4.8177,-4.8105,-4.8106,-4.8138,-4.8131,-4.8165,-4.8168,-4.8162,-4.8255,-4.8271,-4.8329,-4.8223,-4.8491,-4.8499,-4.8507,-4.8582,-4.8598,-4.8612,0,0,0,0,0,-4.7927,-4.8018,-4.8002,-4.8019,-4.8106,-4.8181,-4.8192,-4.8184,-4.8143,-4.8186,-4.8197,-4.8166,-4.8313,-4.8264,-4.8282,-4.8343,-4.8488,-4.8497,-4.8506,-4.8576,-4.8595,-4.8612,0,0,0,0,0,0,-4.799,-4.8022,-4.8004,-4.8109,-4.8143,-4.8171,-4.8226,-4.8205,-4.825,-4.8242,-4.8229,-4.8237,-4.833,-4.8345,-4.829,-4.8454,-4.8394,-4.8407,-4.8441,-4.8459,-4.8474,-4.8469,-4.8229,0,0,0,0,0,-4.8016,-4.8075,-4.8099,-4.8189,-4.8207,-4.8214,-4.8246,-4.8238,-4.8272,-4.8285,-4.8303,-4.8336,-4.839,-4.8425,-4.8475,-4.8584,-4.8591,-4.8634,-4.8649,-4.8661,-4.8673,-4.8733,-4.8752,-4.854,-4.854,-4.854,0,0,-4.807,-4.8095,-4.8133,-4.8202,-4.8227,-4.8288,-4.8226,-4.8293,-4.8338,-4.8295,-4.838,-4.8394,-4.843,-4.853,-4.8574,-4.8545,-4.8733,-4.8673,-4.8682,-4.8687,-4.8744,-4.8764,-4.8782,-4.8547,-4.8545,-4.8544,0,0,-4.82,-4.8225,-4.8303,-4.833,-4.837,-4.8374,-4.8393,-4.8426,-4.8434,-4.852,-4.8489,-4.8542,-4.8634,-4.8662,-4.8688,-4.883,-4.8804,-4.8847,-4.8924,-4.8983,-4.8999,-4.9014,-4.9066,-4.9085,-4.8858,-4.8858,-4.8858,0,-4.8262,-4.8354,-4.8345,-4.8416,-4.8447,-4.8413,-4.8492,-4.8518,-4.8572,-4.8594,-4.856,-4.8677,-4.8699,-4.8805,-4.884,-4.8862,-4.8883,-4.8843,-4.8998,-4.9012,-4.9026,-4.9076,-4.9095,-4.8863,-4.8863,-4.8862,-4.8862,0,-4.8429,-4.8493,-4.8551,-4.8606,-4.8644,-4.8718,-4.872,-4.876,-4.8748,-4.8756,-4.8843,-4.8869,-4.8924,-4.8948,-4.8937,-4.9054,-4.9034,-4.8999,-4.8939,-4.9052,-4.9098,-4.9117,-4.887,-4.8869,-4.8867,-4.8866,0,0,-4.8601,-4.8651,-4.8673,-4.8698,-4.874,-4.8789,-4.8861,-4.8917,-4.8952,-4.899,-4.905,-4.913,-4.9099,-4.9128,-4.912,-4.9171,-4.9284,-4.913,-4.9131,-4.9159,-4.9415,-4.9442,-4.9465,-4.9267,-4.927,-4.9273,-4.9413,0,-4.8734,-4.8863,-4.8858,-4.8977,-4.9036,-4.9005,-4.9068,-4.9101,-4.911,-4.9161,-4.917,-4.9227,-4.9181,-4.9199,-4.9248,-4.926,-4.9335,-4.9249,-4.9323,-4.9326,-4.9316,-4.9488,-4.9517,-4.9648,-4.9431,-4.9434,-4.9436,0,-4.8907,-4.8954,-4.908,-4.9115,-4.914,-4.9197,-4.9248,-4.9297,-4.9333,-4.9336,-4.9371,-4.9354,-4.9427,-4.9364,-4.9464,-4.9406,-4.9436,-4.9446,-4.9451,-4.9458,-4.9388,-4.9502,-4.9689,-4.971,-4.9464,-4.9462,-4.946,0,-4.9022,-4.9116,-4.9204,-4.9226,-4.9268,-4.9309,-4.9329,-4.9361,-4.9396,-4.944,-4.9462,-4.9514,-4.9542,-4.9582,-4.958,-4.9535,-4.9682,-4.9619,-4.9687,-4.9687,-4.972,-4.9718,-4.9917,-4.9737,-4.9737,-4.9737,-4.9736,0,-4.9172,-4.9251,-4.9256,-4.931,-4.9398,-4.9391,-4.9477,-4.9491,-4.9521,-4.9577,-4.9552,-4.9605,-4.9598,-4.9651,-4.9649,-4.9733,-4.9746,-4.975,-4.9749,-4.9754,-4.9753,-4.9773,-4.9765,-4.9742,-4.9741,-4.974,-4.9739,0,-4.9315,-4.9322,-4.9416,-4.9449,-4.9459,-4.9522,-4.955,-4.9601,-4.9608,-4.968,-4.9696,-4.9707,-4.9769,-4.977,-4.9839,-4.9838,-4.9942,-4.9929,-4.993,-4.9929,-4.9997,-4.9991,-5.0216,-5.0246,-5.0046,-5.0048,-5.0049,0,-4.9412,-4.9472,-4.9512,-4.9549,-4.9572,-4.9631,-4.9666,-4.9661,-4.9699,-4.9746,-4.9792,-4.9851,-4.9898,-4.9998,-5.0011,-5.0065,-5.0054,-5.0129,-5.0062,-5.0065,-5.0057,-5.0054,-5.0061,-5.0143,-5.0145,-5.0147,-5.0148,0,-4.9583,-4.9583,-4.9636,-4.9692,-4.9736,-4.9778,-4.9817,-4.9848,-4.9848,-4.9892,-4.9955,-4.9992,-5.0065,-5.0124,-5.0176,-5.0194,-5.0172,-5.0169,-5.0188,-5.0194,-5.0193,-5.0196,-4.9968,-5.0164,-5.0163,-5.0162,-5.0161,-5.016,-4.9706,-4.9759,-4.9796,-4.9857,-4.9886,-4.9924,-4.9975,-4.9989,-5.0042,-5.0102,-5.0096,-5.0167,-5.0201,-5.0269,-5.0292,-5.0347,-5.0321,-5.0348,-5.0355,-5.0362,-5.037,-5.0183,-5.0356,-5.0356,-5.0355,-5.0355,-5.0355,0,-4.9877,-4.99,-4.9956,-5.0013,-5.0061,-5.0036,-5.0079,-5.012,-5.0184,-5.0219,-5.0267,-5.034,-5.0398,-5.0416,-5.0472,-5.0513,-5.0504,-5.0528,-5.0525,-5.053,-5.039,-5.0369,-5.0534,-5.0534,-5.0534,-5.0534,-5.0534,-5.0534,-4.9972,-5.0061,-5.0066,-5.0169,-5.019,-5.0261,-5.0288,-5.0323,-5.0351,-5.0435,-5.0484,-5.0496,-5.0525,-5.0583,-5.0635,-5.0639,-5.0661,-5.069,-5.0689,-5.0558,-5.054,-5.0523,-5.0503,-5.0694,-5.0694,-5.0825,-5.0827,-5.0828]}]]